Location: Boussois
(50.2902°N, 4.0429°E)
Time: 13:25:56
(UTC+00:00)

Daily predictions for brighter satellites

Satellite Brightness Start Highest point End
(mag) Time Altitude Azimuth Time Altitude Azimuth Time Altitude Azimuth
Cosmos 1607 4.4 16:06:25 10° NW 16:12:16 40° NE 16:18:08 10° ESE
SL-16 R/B 2.8 16:08:04 10° NNE 16:14:12 54° ESE 16:20:15 10° S
Cosmos 1356 Rocket 3.8 16:11:05 10° SSE 16:14:52 41° E 16:18:43 10° NNE
Cosmos 332 Rocket 4.5 16:11:24 10° SW 16:16:07 54° WNW 16:20:50 10° NNE
Cosmos 2227 Rocket 3.4 16:12:11 10° NNW 16:16:28 21° NE 16:20:43 10° E
CORIOLIS 4.5 16:13:15 10° SE 16:18:15 44° ENE 16:23:18 10° N
Cosmos 773 Rocket 4.4 16:16:57 10° NNW 16:21:52 40° ENE 16:26:46 10° SE
Cosmos 2369 Rocket 3.0 16:16:34 10° SW 16:22:01 49° NW 16:27:33 10° NNE
USA 215 3.7 16:18:02 10° ENE 16:24:19 51° N 16:30:36 10° WNW
Cosmos 2228 3.3 16:23:04 10° SSE 16:27:08 47° E 16:31:14 10° NNE
Cosmos 1758 Rocket 4.0 16:24:24 10° N 16:28:27 37° ENE 16:32:26 10° SE
Intercosmos 24 4.1 16:25:01 10° N 16:29:03 44° ENE 16:32:28 10° SSE
ARIANE 5 R/B 2.9 16:24:33 10° SE 16:29:13 39° ENE 16:33:58 10° N
Cosmos 2208 Rocket 4.2 16:24:45 10° NNW 16:29:44 46° ENE 16:34:42 10° SE
BREEZE M DEB (TANK) 4.3 16:11:29 10° W 16:30:16 78° SSW 16:34:45 10° ESE
Cosmos 2278 Rocket 4.3 16:27:44 10° WNW 16:30:36 14° NNW 16:33:29 10° N
Cosmos 1943 Rocket 4.3 16:28:08 10° NW 16:30:37 13° NNW 16:33:06 10° N
ARIANE 6 FM1 Upper Stage 4.3 16:28:53 10° WNW 16:32:34 37° SW 16:36:17 10° SSE
Cosmos 2098 Rocket 4.0 16:29:22 10° SE 16:32:43 27° E 16:36:33 10° NNE
Okean 1 Rocket 4.4 16:29:42 10° SW 16:33:47 40° WNW 16:37:52 10° N
GEOS 3 Rocket 3.9 16:29:52 10° NE 16:35:13 63° SE 16:40:33 10° SSW
Cosmos 1697 Rocket 4.3 16:35:04 10° SE 16:37:50 14° E 16:40:11 11° ENE
USA 290 3.0 16:43:44 10° N 16:46:40 30° ENE 16:49:34 10° ESE
CBERS-1 4.3 16:44:01 10° S 16:49:07 74° WSW 16:54:16 10° NNW
SL-08 ROCKET BODY 4.4 16:43:59 10° N 16:49:53 64° ENE 16:55:50 10° SSE
IRS-1C 4.2 16:45:34 10° SE 16:50:46 59° ENE 16:56:01 10° N
BREEZE-M DEB (TANK) 3.1 16:49:53 10° W 16:52:34 73° N 16:59:05 14° ENE
Cosmos 1626 Rocket 3.4 16:48:33 10° N 16:52:55 74° E 16:57:12 10° SSE
NOSS 2-2 (C) 2.6 16:50:50 10° SW 16:54:05 82° SE 16:56:15 17° NE
SMAP 3.0 16:50:29 10° SSE 16:55:08 77° ENE 16:59:49 10° NNW
CZ-2D R/B 2.9 16:52:36 10° SE 16:55:35 45° ENE 16:58:38 10° N
NOSS 3-2 (C) 4.1 16:55:07 10° S 16:59:21 28° ESE 17:02:36 17° ENE
Thor Agena Rocket 3.7 16:54:45 10° SSE 16:59:59 80° WSW 17:05:12 10° NNW
NOSS 3-2 (A) 3.2 16:55:41 10° SSW 17:00:38 65° SE 17:05:38 15° NE
Landsat 7 3.7 16:56:41 10° SSE 17:01:17 68° ENE 17:05:56 10° N
Cosmos 2151 3.1 16:57:34 10° N 17:01:35 46° ENE 17:05:35 10° SSE
Cosmos 1634 Rocket 4.1 16:58:08 10° SSW 17:04:20 79° WNW 17:10:32 10° N
BlueWalker 3 2.3 17:00:56 10° WNW 17:04:30 58° SSW 17:08:04 10° SE
Cosmos 1743 2.2 17:03:03 10° N 17:06:18 59° ENE 17:09:30 10° SSE
ATLAS CENTAUR R/B 0.5 17:04:03 10° NW 17:07:21 81° NE 17:10:30 10° SE
UNK 3.6 17:03:43 10° NNE 17:08:20 77° ESE 17:12:54 10° S
Okean 1-7 Rocket 3.9 17:05:24 10° N 17:09:37 42° ENE 17:13:46 10° SE
Cosmos 2297 Rocket 2.1 17:04:45 10° NNW 17:10:27 75° ENE 17:16:07 10° SE
Lacrosse 4 Rocket 2.4 17:06:52 10° WSW 17:10:43 40° NW 17:14:13 12° NNE
Resurs 1-3 4.4 17:07:13 10° ESE 17:10:49 26° ENE 17:14:26 10° N
Cosmos 1544 Rocket 3.5 17:07:08 10° S 17:11:30 79° E 17:15:57 10° NNE
Meteor 1-25 Rocket 4.4 17:06:26 10° N 17:12:07 49° ENE 17:17:43 10° SE
Cosmos 1656 3.7 17:08:00 10° SSW 17:13:34 67° ESE 17:18:29 14° NE
Cosmos 1461 4.0 17:11:44 10° SSE 17:14:47 22° ESE 17:15:27 21° E
IRIDIUM 104 4.3 17:11:45 10° N 17:16:58 67° E 17:22:10 10° SSE
Meteor 1-28 Rocket 4.0 17:13:58 10° N 17:17:12 44° WNW 17:20:23 10° SW
Cosmos 2279 Rocket 4.1 17:15:35 10° S 17:21:48 83° W 17:28:05 10° N
Cosmos 2219 4.2 17:19:06 10° NNW 17:23:50 26° NE 17:25:09 23° ENE
SKYMED 2 4.2 17:23:07 24° NE 17:25:00 35° E 17:28:59 10° SSE
IRIDIUM 114 4.2 17:20:52 10° N 17:26:08 80° E 17:31:21 10° S
Spot 4 Rocket 4.3 17:21:42 10° SE 17:26:31 44° ENE 17:31:22 10° N
Lacrosse 5 rocket 1.5 17:23:17 10° WSW 17:26:57 51° NNW 17:28:28 30° NE
Meteor 1-5 Rocket 4.4 17:21:59 10° N 17:27:02 42° ENE 17:32:07 10° SE
SAR-Lupe-4 4.0 17:24:52 10° S 17:28:24 63° WSW 17:31:57 10° NNW
COSMO-SKYMED 1 3.6 17:29:12 25° ESE 17:29:12 25° ESE 17:32:01 10° SSE
Cosmos 1726 Rocket 4.3 17:25:14 10° SSE 17:29:22 32° E 17:30:23 29° ENE
PSLV R/B 3.9 17:28:53 28° E 17:29:59 34° ENE 17:33:40 10° N
Cosmos 1602 Rocket 3.5 17:26:19 10° N 17:30:45 86° W 17:35:06 10° S
MOS 1 Rocket 3.4 17:26:06 10° SSE 17:30:56 88° ENE 17:36:06 10° NNW
CZ-4 R/B 4.3 17:27:29 10° SSE 17:31:21 60° ENE 17:35:16 10° N
Cosmos 2180 Rocket 4.4 17:28:32 10° S 17:34:39 89° E 17:40:52 10° N
IRIDIUM 103 4.3 17:30:03 10° N 17:35:18 87° W 17:40:32 10° S
SL-19 R/B 4.4 17:30:15 10° SE 17:35:21 48° ENE 17:40:44 10° N
CZ-4C R/B 2.9 17:28:45 10° NW 17:35:32 82° NE 17:44:05 10° SE
Cosmos 2084 Rocket 3.3 17:31:21 10° NW 17:35:34 71° NE 17:37:51 26° ESE
Cosmos 724 4.4 17:30:13 10° NW 17:36:19 81° SW 17:42:14 10° SSE
Cosmos 1777 Rocket 4.0 17:31:48 10° S 17:37:00 66° ESE 17:40:21 22° NNE
Cosmos 1980 Rocket 3.7 17:35:12 10° SE 17:37:44 18° ESE 17:37:44 18° ESE
CZ-2D R/B 3.4 17:35:01 10° SSE 17:39:09 58° ENE 17:43:15 10° N
Resurs 01 Rocket 3.9 17:42:49 11° NNE 17:42:49 11° NNE 17:43:04 10° N
Cosmos 1867 3.5 17:34:07 10° NW 17:39:36 71° NE 17:44:00 16° SE
IRS-P3 4.2 17:35:33 10° SSE 17:40:52 79° WSW 17:46:14 10° NNW
Cosmos 1782 3.6 17:39:12 10° SSW 17:42:40 45° WNW 17:46:10 10° N
Cosmos 1900 4.2 17:38:15 10° NW 17:43:21 77° NE 17:47:17 16° SE
YAOGAN 1 2.5 17:40:17 10° SSE 17:44:25 54° ENE 17:48:36 10° N
Cosmos 1844 Rocket 4.4 17:41:57 10° N 17:44:55 16° NNE 17:44:55 16° NNE
Cosmos 1486 Rocket 4.1 17:46:18 10° SSW 17:51:30 78° WNW 17:55:12 20° NNE
Cosmos 2263 Rocket 2.4 17:46:45 10° NNW 17:52:13 46° NE 17:53:46 37° E
Cosmos 1953 Rocket 3.7 17:48:28 10° N 17:52:48 50° ENE 17:53:35 45° ESE
NOSS 2-2 (D) 3.2 17:51:24 10° WSW 17:54:32 49° NW 17:54:45 48° NNW
CENTAUR R/B 3.5 17:50:28 10° W 17:56:15 43° NNW 18:00:51 21° NNE
Cosmos 2266 Rocket 4.2 17:50:35 10° NNW 17:56:44 69° W 18:02:46 10° S
Cosmos 2360 4.2 17:51:38 10° SSW 17:57:22 82° WNW 18:00:53 25° NNE
SL-16 R/B 4.0 17:52:01 10° N 17:57:32 34° WNW 18:03:01 10° WSW
USA 238 DEB 4.4 17:53:54 10° S 17:58:22 27° ESE 17:58:22 27° ESE
USA 238 4.5 17:54:01 10° SSE 17:58:26 27° ESE 17:58:26 27° ESE
Cosmos 1933 3.0 17:55:13 10° S 17:59:03 88° E 17:59:50 55° NNE
USA 81 4.1 17:54:20 10° N 17:59:30 51° ENE 18:04:37 10° SSE
Cosmos 1607 4.4 17:53:41 10° NW 17:59:49 62° WSW 18:06:00 10° SSE
Cosmos 2227 Rocket 2.1 17:55:43 10° NNW 18:01:24 82° ENE 18:06:42 12° SSE
NOSS 2-2 (E) 3.4 18:00:42 10° WSW 18:03:40 49° WNW 18:03:40 49° WNW
Cosmos 1825 Rocket 3.6 18:00:43 10° NNW 18:05:05 76° W 18:09:24 10° S
USA 215 3.4 18:04:26 38° ENE 18:06:49 59° NNE 18:13:15 10° WNW
Cosmos 2369 Rocket 4.5 18:04:12 10° WNW 18:07:29 15° NNW 18:10:47 10° N
ARIANE 5 R/B 4.2 18:03:46 10° SSW 18:08:19 34° W 18:12:58 10° NNW
NOAA 6 3.9 18:04:59 10° SSE 18:10:04 70° ENE 18:15:09 10° N
BREEZE M DEB (TANK) 4.4 18:08:33 10° SW 18:09:12 17° SW 18:09:12 17° SW
USA 281 4.3 18:11:45 26° NNE 18:11:45 26° NNE 18:16:18 10° NNW
SPOT 1/Viking Rocket 3.9 18:06:05 10° S 18:11:14 65° WSW 18:16:27 10° NNW
IRAS Rocket 4.1 18:09:06 10° SSE 18:14:36 90° SW 18:20:08 10° NNW
BREEZE-M DEB (TANK) 4.3 18:13:19 10° WSW 18:13:35 13° SW 18:13:35 13° SW
Cosmos 990 Rocket 3.8 18:14:31 10° SSW 18:19:37 76° ESE 18:20:06 69° ENE
Cosmos 1697 Rocket 2.5 18:15:14 10° SSW 18:20:49 79° ESE 18:21:56 58° NE
Gbstr 26 Del rocket 4.4 18:23:28 10° SW 18:25:30 25° SSW 18:25:30 25° SSW
Cosmos 1244 Rocket 4.3 18:29:57 10° N 18:36:18 78° E 18:42:31 10° SSE
Cosmos 1076 Rocket 4.5 18:41:09 10° NNW 18:45:16 45° W 18:49:22 10° SSW
Cosmos 1538 Rocket 4.1 18:40:42 10° NNW 18:45:41 76° WNW 18:45:41 76° WNW
Cosmos 2082 4.3 18:40:27 10° NNW 18:44:30 44° N 18:44:30 44° N
NOSS 3-2 (C) 3.4 18:44:24 10° WSW 18:49:34 64° NW 18:50:02 61° NNW
Lacrosse 4 Rocket 4.1 18:48:35 10° NW 18:49:38 11° NNW 18:49:43 11° NNW
NOSS 3-2 (A) 4.3 18:46:47 10° W 18:51:50 38° NNW 18:52:59 35° N
SL-08 R/B 4.4 18:51:42 10° N 18:57:43 82° NNW 18:57:43 82° NNW
COSMO-SKYMED 1 4.4 19:05:32 26° WSW 19:05:32 26° WSW 19:07:43 10° SW
Lacrosse 5 rocket 3.9 19:01:18 10° WNW 19:02:04 14° WNW 19:02:04 14° WNW
Cosmos 2219 3.8 19:02:52 10° NNW 19:07:05 51° NW 19:07:05 51° NW
Cosmos 1980 Rocket 3.6 19:16:48 10° SSW 19:19:32 30° SW 19:19:32 30° SW
CZ-4C R/B 4.4 19:17:21 10° WNW 19:23:41 33° WSW 19:31:07 10° S
Cosmos 2263 Rocket 3.5 19:30:53 10° NW 19:35:29 36° W 19:35:29 36° W
CENTAUR R/B 4.2 19:42:49 10° WNW 19:47:57 29° NNW 19:47:57 29° NNW
USA 215 4.0 19:51:47 47° WNW 19:51:47 47° WNW 19:56:21 10° WNW
